Find Starlink 6280

NORAD ID: 56531 Int'l Des: 2023-065 Owner: SPXS Country: US Constellation: starlink operational
LEOCIRCULAR

当前视图

正在加载3D地球...

About Starlink 6280

Starlink 6280 (NORAD 56531) is a starlink constellation satellite (v1.5) launched May 14, 2023 by SPXS of US. It operates in LEO, CIRCULAR orbit with a mass of 305.00 kg.

关于 Starlink 6280

正在加载描述...

即将过境

Passes for default location (London). Set your location on the main map for personalized predictions.

高度历史

Loading altitude history...

两行轨道根数

1 56531U 23065AE 26170.50064744 .00001247 00000-0 54807-4 0 9994
2 56531 43.0024 343.3615 0001391 263.5459 96.5235 15.27585759172338
Epoch: Jun 19, 2026 • Age: 13 hours

当前状态

高度 486.7 km
速度 7.63 km/s
星下点 41.41°N, 166.54°E
发射日期 May 14, 2023
运行时间 3 years
类型 internet

技术详情

分类 Payload
质量 305.00 kg
干质量 290.00 kg
总质量 305.00 kg
长度 0.20 m
直径 2.80 m
跨度 9.00 m
形状 Box + pan
制造商 SPXS
平台类型 Starlink
阶段状态 In Orbit
所有者/国家 SPXS/US

Most Searched